Location: Unspecified
(0.0000°N, 0.0000°E)
Time: 16:19:00
(UTC+02:00)

Amateur Radio Satellites - All Passes

Search period start: 30 May 2015 15:49
Search period end: 31 May 2015 15:49
Location: Unspecified, 0.0000°N, 0.0000°E

Satellite Date Start Highest point End Downlink Frequencies (MHz)
Time Altitude Azimuth
Cosmos 2499 30 May 15:57:48 16:06:30 84° 274° (W) 16:14:33 435.465 / 435.565
Gurwin Techsat 1B 30 May 16:06:22 16:11:41 82° 78° (ENE) 16:17:00 435.225
AO-7 30 May 16:08:26 16:10:08 11° 76° (ENE) 16:12:46 29.400- 29.500
BEESAT 2 30 May 16:11:24 16:12:52 12° 114° (ESE) 16:14:36 435.950
ITUPSAT 1 30 May 16:12:14 16:16:02 23° 281° (W) 16:19:42 437.325
STARS 30 May 16:17:35 16:21:11 26° 101° (E) 16:24:51 437.465
BEESAT 30 May 16:17:57 16:21:21 19° 281° (W) 16:24:34 436.000
SWISSCUBE 30 May 16:28:17 16:30:31 13° 280° (W) 16:32:24 437.505
Oscar 19 30 May 16:28:34 16:29:58 11° 260° (W) 16:30:54 437.125/150
HORYU 2 30 May 16:29:56 16:32:16 15° 80° (E) 16:34:52 437.375
JAS-2 30 May 16:39:12 16:45:25 31° 81° (E) 16:51:14 435.910
ITAMSAT 1 30 May 16:47:35 16:52:04 29° 258° (WSW) 16:56:27 435.822/435.867
BEESAT 3 30 May 16:52:59 16:56:57 71° 111° (ESE) 17:00:58 437.485
KKS-1 30 May 16:58:14 17:02:26 41° 281° (W) 17:06:36 437.445
SRMSAT 30 May 17:01:29 17:05:57 22° 16° (NNE) 17:10:29 437.500
MOZHAYETS 4 30 May 17:19:14 17:21:19 13° 100° (E) 17:23:43
JUGNU 30 May 17:25:28 17:31:18 67° 21° (NNE) 17:37:08 437.505
BEESAT 2 30 May 17:47:31 17:50:50 24° 293° (WNW) 17:54:04 435.950
AO-7 30 May 17:54:37 18:02:55 80° 254° (WSW) 18:11:12 29.400- 29.500
STARS 30 May 17:55:21 17:57:31 13° 280° (W) 17:59:24 437.465
AIST 2 30 May 18:00:28 18:04:39 88° 112° (ESE) 18:08:52 435.215
HORYU 2 30 May 18:05:04 18:08:48 25° 259° (WSW) 18:12:25 437.375
JAS-2 30 May 18:23:59 18:30:18 29° 256° (WSW) 18:35:54 435.910
SRMSAT 30 May 18:49:37 18:55:24 56° 20° (NNE) 19:01:13 437.500
MOZHAYETS 4 30 May 18:54:28 18:58:25 28° 281° (W) 19:02:20
Cosmos 2491 30 May 19:02:10 19:08:26 23° 96° (E) 19:15:11 435.465 / 435.565
CUBESAT XI-V 30 May 19:07:49 19:10:39 17° 100° (E) 19:13:44 437.345
JUGNU 30 May 19:14:48 19:20:22 44° 200° (SSW) 19:25:55 437.505
YUBILEINY 30 May 19:23:30 19:30:50 32° 85° (E) 19:38:29 435.215
CUTE-I 30 May 19:27:39 19:32:25 35° 78° (ENE) 19:37:15 437.470
Cubesat XI-IV 30 May 19:48:57 19:54:13 66° 78° (ENE) 19:59:29 437.490
RS-15 30 May 19:57:47 20:09:29 59° 68° (ENE) 20:21:31 29.354- 29.394
STRAND 1 30 May 20:18:46 20:23:39 46° 102° (ESE) 20:28:36 437.568
PRISM 30 May 20:27:09 20:31:19 73° 101° (ESE) 20:35:32 437.425
M-CUBED/EXP-1 PRIME 30 May 20:34:23 20:37:19 25° 106° (ESE) 20:40:30 437.505
AUBIESAT-1 30 May 20:38:51 20:41:45 24° 106° (ESE) 20:44:55 437.475
SRMSAT 30 May 20:38:51 20:44:37 53° 201° (SSW) 20:50:25 437.500
CUBESAT XI-V 30 May 20:44:06 20:47:58 25° 280° (W) 20:51:44 437.345
ISS 30 May 20:54:07 20:57:20 72° 305° (NW) 21:00:32 145.825
Cosmos 2491 30 May 20:56:58 21:05:12 44° 275° (W) 21:13:19 435.465 / 435.565
JUGNU 30 May 21:05:45 21:09:45 18° 194° (SSW) 21:13:41 437.505
CUTE-I 30 May 21:09:24 21:12:24 15° 259° (W) 21:15:03 437.470
YUBILEINY 30 May 21:19:59 21:27:32 32° 265° (W) 21:34:51 435.215
AIST 1 30 May 21:29:41 21:33:49 48° 274° (W) 21:37:54
GOMX 1 30 May 21:35:29 21:39:51 36° 78° (ENE) 21:44:34 467.674
SEEDS 30 May 21:36:14 21:38:01 13° 81° (E) 21:40:04 437.485
COMPASS 1 30 May 21:43:25 21:44:54 12° 81° (E) 21:46:40 437.405
AAUSAT CUBESAT 2 30 May 21:51:47 21:53:38 13° 81° (E) 21:55:44 437.432
BRITE-PL 30 May 21:52:41 21:57:21 75° 259° (W) 22:02:26 437.365/2234.400
Cosmos 2504 30 May 21:58:20 22:04:23 30° 86° (E) 22:10:57 435.465 / 435.565
HO-68 30 May 22:00:17 22:07:16 54° 76° (ENE) 22:14:14 435.675
STRAND 1 30 May 22:02:12 22:02:49 10° 280° (W) 22:02:56 437.568
VERMONT LUNAR 30 May 22:09:38 22:12:51 51° 317° (NW) 22:16:02 437.305
RS-15 30 May 22:12:18 22:22:07 26° 245° (WSW) 22:31:15 29.354- 29.394
DOVE 4 30 May 22:16:43 22:21:33 73° 79° (ENE) 22:26:40 437.250
SRMSAT 30 May 22:29:38 22:34:07 22° 196° (SSW) 22:38:34 437.500
UWE-3 30 May 22:32:40 22:34:59 14° 80° (E) 22:37:37 435.000/436.395/437.385
CANX-2 30 May 22:50:38 22:54:29 31° 259° (W) 22:58:15 2200.000
CUTE 1.7 + AOD 2 30 May 22:53:31 22:57:25 32° 259° (W) 23:01:12 437.475
JUGNU 30 May 22:58:43 22:59:40 10° 185° (S) 23:00:34 437.505
PCSat 30 May 23:02:27 23:05:12 15° 112° (ESE) 23:08:17 145.827
CINEMA 3 30 May 23:02:51 23:07:40 69° 259° (W) 23:12:37 145.822/145.860
SEEDS 30 May 23:10:12 23:13:43 24° 260° (W) 23:17:05 437.485
ZACube-1 30 May 23:12:27 23:16:40 37° 79° (E) 23:20:56 437.345
Oscar 11 30 May 23:15:45 23:20:07 87° 79° (E) 23:24:27 145.826/435.025
GOMX 1 30 May 23:15:54 23:18:00 12° 262° (W) 23:19:46 467.674
ANTELSAT 30 May 23:16:23 23:16:56 10° 100° (E) 23:17:49 437.575/2403.000
COMPASS 1 30 May 23:16:56 23:20:28 25° 259° (W) 23:23:53 437.405
DX 1 30 May 23:22:07 23:24:56 18° 79° (E) 23:27:56 434.975-435.025
DELFI C3 30 May 23:25:27 23:29:30 81° 79° (E) 23:33:31 145.870
AAUSAT CUBESAT 2 30 May 23:25:45 23:29:09 23° 260° (W) 23:32:24 437.432
PHONESAT 2.4 30 May 23:25:55 23:29:23 54° 317° (NW) 23:32:50 2401.200-2431.200
CUBEBUG 2 30 May 23:27:49 23:32:32 74° 260° (W) 23:37:16 437.445
TIGRISAT 30 May 23:44:22 23:47:56 27° 101° (E) 23:51:35 435.000
HO-68 30 May 23:50:35 23:54:54 16° 257° (WSW) 23:58:40 435.675
NANOSAT C BR1 30 May 23:51:30 23:52:54 12° 100° (E) 23:54:37 145.865
Cosmos 2504 30 May 23:51:34 23:57:38 27° 264° (W) 00:03:43 435.465 / 435.565
VELOX 1 30 May 23:51:38 23:54:40 19° 79° (E) 23:57:51 145.980
QB50P2 31 May 00:01:12 00:04:00 18° 100° (E) 00:06:59 145.880/145.840
UNISAT 6 31 May 00:05:59 00:10:11 62° 101° (ESE) 00:14:24 437.425
FUNcube-1 31 May 00:06:15 00:10:31 39° 259° (W) 00:14:46 145.935
UWE-3 31 May 00:07:22 00:11:23 28° 260° (W) 00:15:21 435.000/436.395/437.385
HUMSAT D 31 May 00:09:31 00:13:52 88° 80° (E) 00:18:12 437.325/437.525
50 SAT 31 May 00:09:59 00:13:45 39° 79° (E) 00:17:31 437.505
ESTCUBE 1 31 May 00:10:26 00:13:22 18° 80° (E) 00:16:28 437.505/2401.250
DUCHIFAT 1 31 May 00:10:32 00:13:49 23° 101° (E) 00:17:12 145.980
POPSAT HIP 1 31 May 00:11:51 00:15:16 25° 101° (E) 00:18:46 437.405
BUGSAT 1 31 May 00:16:04 00:18:38 17° 100° (E) 00:21:24 437.445
SRMSAT 31 May 00:22:11 00:24:09 11° 187° (S) 00:26:03 437.500
AISAT 31 May 00:23:28 00:27:49 58° 78° (ENE) 00:32:10 437.250
UKube-1 31 May 00:42:17 00:46:13 33° 259° (WSW) 00:50:04 .
PCSat 31 May 00:43:36 00:48:33 36° 290° (WNW) 00:53:25 145.827
JUGNU 31 May 00:48:56 00:49:50 10° 175° (S) 00:50:48 437.505
ANTELSAT 31 May 00:49:54 00:53:38 29° 281° (W) 00:57:18 437.575/2403.000
QB50P1 31 May 00:54:37 00:58:50 72° 282° (WNW) 01:03:02 145.935-145.965
DANDE 31 May 00:55:57 00:59:04 17° 76° (ENE) 01:01:54 436.750
DX 1 31 May 00:57:54 01:01:04 19° 259° (W) 01:04:03 434.975-435.025
CUSAT 1 31 May 00:58:51 01:02:34 25° 78° (ENE) 01:05:40 437.405
POLYITAN 1 31 May 00:58:58 01:03:07 60° 281° (WNW) 01:07:16 437.675
CUBEBUG 1 31 May 01:13:07 01:17:26 68° 259° (W) 01:21:44 437.445
TIGRISAT 31 May 01:23:16 01:24:36 11° 280° (W) 01:25:36 435.000
NANOSAT C BR1 31 May 01:25:05 01:28:39 26° 281° (W) 01:32:07 145.865
VELOX 1 31 May 01:27:57 01:31:06 18° 259° (W) 01:34:04 145.980
SPROUT 31 May 01:36:15 01:40:22 46° 79° (E) 01:44:31 437.525
QB50P2 31 May 01:36:54 01:39:47 17° 280° (W) 01:42:30 145.880/145.840
TISAT 1 31 May 01:43:39 01:47:33 38° 79° (E) 01:51:30 437.305
ESTCUBE 1 31 May 01:46:46 01:50:07 20° 259° (W) 01:53:18 437.505/2401.250
DUCHIFAT 1 31 May 01:47:19 01:49:30 13° 280° (W) 01:51:27 145.980
GONETS M04 31 May 01:48:06 01:56:45 73° 86° (E) 02:05:26
POPSAT HIP 1 31 May 01:49:06 01:51:02 12° 280° (W) 01:52:40 437.405
BUGSAT 1 31 May 01:51:01 01:54:00 18° 280° (W) 01:56:48 437.445
SRMSAT 31 May 02:13:48 02:14:29 10° 177° (S) 02:15:13 437.500
SO-50 31 May 02:18:55 02:23:19 64° 292° (WNW) 02:27:51 436.795
Cosmos 2499 31 May 02:20:44 02:21:41 10° 85° (E) 02:23:34 435.465 / 435.565
JUGNU 31 May 02:35:49 02:39:46 18° 166° (SSE) 02:43:49 437.505
DANDE 31 May 02:38:46 02:42:09 17° 270° (W) 02:44:49 436.750
ITUPSAT 1 31 May 02:56:33 03:00:53 36° 79° (E) 03:05:15 437.325
BEESAT 31 May 03:01:21 03:05:51 43° 78° (ENE) 03:10:22 436.000
O/OREOS (USA 219) 31 May 03:05:05 03:09:31 64° 75° (ENE) 03:13:59 437.305
Gurwin Techsat 1B 31 May 03:07:30 03:10:18 15° 101° (E) 03:13:26 435.225
SWISSCUBE 31 May 03:10:20 03:15:03 65° 78° (ENE) 03:19:45 437.505
Oscar 19 31 May 03:19:18 03:24:23 70° 283° (WNW) 03:29:30 437.125/150
KKS-1 31 May 03:36:50 03:38:39 13° 80° (E) 03:40:47 437.445
ITAMSAT 1 31 May 03:42:48 03:47:45 45° 102° (ESE) 03:52:45 435.822/435.867
GONETS M04 31 May 03:50:32 03:53:43 12° 263° (W) 03:55:52
SRMSAT 31 May 04:01:00 04:04:41 17° 167° (SSE) 04:08:27 437.500
BEESAT 2 31 May 04:06:19 04:08:10 13° 66° (ENE) 04:10:14 435.950
Cosmos 2499 31 May 04:07:28 04:14:41 66° 266° (W) 04:22:27 435.465 / 435.565
JAS-2 31 May 04:14:05 04:16:03 12° 104° (ESE) 04:18:37 435.910
JUGNU 31 May 04:23:35 04:29:12 43° 160° (SSE) 04:34:52 437.505
STARS 31 May 04:28:25 04:32:31 37° 78° (ENE) 04:36:38 437.465
AO-7 31 May 04:30:57 04:36:38 22° 104° (ESE) 04:42:47 29.400- 29.500
ITUPSAT 1 31 May 04:37:08 04:38:41 11° 260° (W) 04:39:50 437.325
HORYU 2 31 May 04:41:48 04:45:03 21° 101° (E) 04:48:29 437.375
Gurwin Techsat 1B 31 May 04:45:23 04:50:10 34° 282° (WNW) 04:54:55 435.225
BEESAT 3 31 May 04:47:32 04:51:29 79° 67° (ENE) 04:55:24 437.485
KKS-1 31 May 05:11:19 05:15:11 28° 259° (W) 05:18:57 437.445
ITAMSAT 1 31 May 05:25:45 05:27:12 11° 280° (W) 05:28:09 435.822/435.867
MOZHAYETS 4 31 May 05:34:52 05:38:24 23° 80° (E) 05:42:02
BEESAT 2 31 May 05:43:04 05:46:08 21° 247° (WSW) 05:49:04 435.950
SRMSAT 31 May 05:48:53 05:54:23 37° 161° (SSE) 05:59:54 437.500
JAS-2 31 May 05:55:29 06:00:51 49° 281° (W) 06:06:52 435.910
AIST 2 31 May 05:59:31 06:03:35 72° 248° (WSW) 06:07:37 435.215
JUGNU 31 May 06:12:21 06:18:19 70° 339° (NNW) 06:24:18 437.505
HORYU 2 31 May 06:18:42 06:21:35 16° 280° (W) 06:24:15 437.375
AO-7 31 May 06:21:16 06:29:18 50° 285° (WNW) 06:37:17 29.400- 29.500
Cubesat XI-IV 31 May 06:51:49 06:53:46 12° 101° (E) 06:56:09 437.490
MOZHAYETS 4 31 May 07:12:28 07:15:30 17° 260° (W) 07:18:18
CUBESAT XI-V 31 May 07:25:24 07:29:16 28° 80° (E) 07:33:14 437.345
Cosmos 2491 31 May 07:34:11 07:42:25 47° 86° (E) 07:50:43 435.465 / 435.565
SRMSAT 31 May 07:37:39 07:43:41 82° 338° (NNW) 07:49:42 437.500
RS-15 31 May 07:41:36 07:51:57 47° 113° (ESE) 08:02:15 29.354- 29.394
YUBILEINY 31 May 07:55:58 08:04:39 64° 94° (E) 08:13:18 435.215
JUGNU 31 May 08:02:32 08:07:33 27° 343° (NNW) 08:12:31 437.505
CUTE-I 31 May 08:06:27 08:11:49 78° 282° (WNW) 08:17:13 437.470
ISS 31 May 08:27:28 08:30:41 61° 54° (NE) 08:33:55 145.825
Cubesat XI-IV 31 May 08:28:43 08:33:47 42° 282° (WNW) 08:38:50 437.490
PRISM 31 May 08:31:01 08:35:07 83° 78° (ENE) 08:39:11 437.425
M-CUBED/EXP-1 PRIME 31 May 08:36:05 08:40:10 33° 76° (ENE) 08:44:03 437.505
AUBIESAT-1 31 May 08:40:04 08:44:03 31° 76° (ENE) 08:47:49 437.475
BRITE-PL 31 May 08:44:30 08:46:43 13° 98° (E) 08:49:11 437.365/2234.400
STRAND 1 31 May 08:51:20 08:56:25 70° 258° (WSW) 09:01:27 437.568
CUBESAT XI-V 31 May 09:04:15 09:06:37 13° 260° (W) 09:08:40 437.345
CANX-2 31 May 09:23:45 09:25:23 12° 100° (E) 09:27:18 2200.000
CUTE 1.7 + AOD 2 31 May 09:26:48 09:28:13 12° 100° (E) 09:29:57 437.475
SRMSAT 31 May 09:27:47 09:33:01 31° 342° (NNW) 09:38:13 437.500
Cosmos 2491 31 May 09:32:45 09:39:12 21° 264° (W) 09:45:05 435.465 / 435.565
AIST 1 31 May 09:36:34 09:40:35 34° 266° (W) 09:44:35
SEEDS 31 May 09:41:23 09:43:45 15° 100° (E) 09:46:21 437.485
VERMONT LUNAR 31 May 09:41:42 09:44:52 83° 223° (SW) 09:48:04 437.305
COMPASS 1 31 May 09:47:38 09:49:43 14° 100° (E) 09:52:02 437.405
HO-68 31 May 09:52:03 09:58:44 45° 104° (ESE) 10:05:31 435.675
JUGNU 31 May 09:54:30 09:57:17 13° 350° (N) 09:59:59 437.505
RS-15 31 May 09:55:03 10:04:12 29° 294° (WNW) 10:12:46 29.354- 29.394
AAUSAT CUBESAT 2 31 May 09:55:40 09:57:57 15° 100° (E) 10:00:28 437.432
YUBILEINY 31 May 09:56:45 10:01:30 14° 276° (W) 10:05:21 435.215
GOMX 1 31 May 09:59:45 10:04:34 75° 101° (E) 10:09:04 467.674
Cosmos 2504 31 May 10:08:36 10:16:46 46° 95° (E) 10:24:37 435.465 / 435.565
M-CUBED/EXP-1 PRIME 31 May 10:12:58 10:14:46 12° 254° (WSW) 10:16:11 437.505
AUBIESAT-1 31 May 10:16:38 10:18:34 12° 254° (WSW) 10:20:10 437.475
BRITE-PL 31 May 10:20:40 10:25:15 32° 282° (WNW) 10:29:28 437.365/2234.400
DOVE 4 31 May 10:38:43 10:43:13 55° 282° (WNW) 10:47:29 437.250
FUNcube-1 31 May 10:43:12 10:44:16 11° 100° (E) 10:45:38 145.935
UWE-3 31 May 10:43:54 10:46:34 17° 100° (E) 10:49:24 435.000/436.395/437.385
CANX-2 31 May 10:57:42 11:01:12 25° 280° (W) 11:04:37 2200.000
CUTE 1.7 + AOD 2 31 May 11:00:29 11:04:02 26° 280° (W) 11:07:31 437.475
PHONESAT 2.4 31 May 11:04:39 11:08:05 69° 223° (SW) 11:11:32 2401.200-2431.200
SEEDS 31 May 11:16:18 11:19:26 20° 280° (W) 11:22:27 437.485
UKube-1 31 May 11:17:12 11:19:09 13° 100° (E) 11:21:24 .
SRMSAT 31 May 11:19:38 11:22:48 14° 349° (N) 11:25:53 437.500
CINEMA 3 31 May 11:20:43 11:24:42 35° 281° (W) 11:28:32 145.822/145.860
COMPASS 1 31 May 11:22:01 11:25:15 21° 280° (W) 11:28:24 437.405
ZACube-1 31 May 11:22:53 11:26:53 48° 101° (E) 11:30:54 437.345
Oscar 11 31 May 11:24:37 11:28:53 70° 281° (WNW) 11:33:11 145.826/435.025
DELFI C3 31 May 11:25:57 11:29:58 82° 101° (E) 11:34:01 145.870
ANTELSAT 31 May 11:27:29 11:30:42 19° 80° (E) 11:34:07 437.575/2403.000
AAUSAT CUBESAT 2 31 May 11:30:20 11:33:26 20° 280° (W) 11:36:25 437.432
DX 1 31 May 11:31:19 11:34:48 24° 101° (E) 11:38:23 434.975-435.025
PCSat 31 May 11:36:27 11:41:34 46° 70° (ENE) 11:46:44 145.827
CUBEBUG 2 31 May 11:41:23 11:45:23 44° 281° (W) 11:49:21 437.445
HO-68 31 May 11:41:24 11:46:22 19° 283° (WNW) 11:50:57 435.675
TIGRISAT 31 May 11:56:53 12:01:23 46° 79° (E) 12:05:53 435.000
NANOSAT C BR1 31 May 11:57:00 11:59:19 15° 80° (E) 12:01:53 145.865
VELOX 1 31 May 12:03:02 12:06:46 28° 101° (E) 12:10:37 145.980
Cosmos 2504 31 May 12:03:26 12:09:59 22° 274° (W) 12:15:47 435.465 / 435.565
QB50P2 31 May 12:07:33 12:10:51 23° 80° (E) 12:14:18 145.880/145.840
50 SAT 31 May 12:07:44 12:11:12 34° 101° (E) 12:14:46 437.505
HUMSAT D 31 May 12:15:15 12:19:18 76° 281° (W) 12:23:24 437.325/437.525
DUCHIFAT 1 31 May 12:16:23 12:20:01 28° 79° (E) 12:23:43 145.980
FUNcube-1 31 May 12:17:02 12:20:30 25° 281° (W) 12:23:54 145.935
POPSAT HIP 1 31 May 12:18:12 12:21:56 31° 79° (E) 12:25:46 437.405
UNISAT 6 31 May 12:19:09 12:23:53 83° 261° (W) 12:28:35 437.425
BUGSAT 1 31 May 12:19:24 12:22:09 18° 80° (E) 12:25:06 437.445
UWE-3 31 May 12:20:13 12:23:00 17° 280° (W) 12:25:36 435.000/436.395/437.385
ESTCUBE 1 31 May 12:23:52 12:27:43 28° 101° (E) 12:31:39 437.505/2401.250
GONETS M04 31 May 12:29:09 12:33:32 16° 96° (E) 12:38:43
AISAT 31 May 12:35:40 12:40:07 87° 102° (ESE) 12:44:34 437.250
UKube-1 31 May 12:51:34 12:55:11 25° 281° (W) 12:58:41 .
SO-50 31 May 12:54:18 12:56:09 12° 64° (ENE) 12:58:20 436.795
QB50P1 31 May 13:01:14 13:05:26 57° 258° (WSW) 13:09:38 145.935-145.965
ANTELSAT 31 May 13:03:42 13:07:21 22° 259° (W) 13:10:50 437.575/2403.000
POLYITAN 1 31 May 13:05:55 13:10:03 47° 259° (W) 13:14:11 437.675
DX 1 31 May 13:08:30 13:10:55 14° 281° (W) 13:13:05 434.975-435.025
PCSat 31 May 13:23:11 13:24:59 11° 247° (WSW) 13:26:19 145.827
CUBEBUG 1 31 May 13:23:36 13:27:52 47° 281° (WNW) 13:32:06 437.445
NANOSAT C BR1 31 May 13:31:44 13:35:02 21° 259° (W) 13:38:14 145.865
JUGNU 31 May 13:34:41 13:37:31 14° 10° (N) 13:40:26 437.505
CUSAT 1 31 May 13:35:40 13:41:45 76° 276° (W) 13:49:24 437.405
DANDE 31 May 13:36:20 13:42:02 79° 95° (E) 13:49:31 436.750
VELOX 1 31 May 13:41:07 13:43:13 13° 280° (W) 13:45:01 145.980
QB50P2 31 May 13:44:14 13:46:38 14° 260° (W) 13:48:48 145.880/145.840
SPROUT 31 May 13:44:20 13:48:34 62° 101° (E) 13:52:48 437.525
TISAT 1 31 May 13:49:29 13:53:31 46° 101° (E) 13:57:35 437.305
DUCHIFAT 1 31 May 13:54:21 13:55:43 11° 260° (W) 13:56:45 145.980
BUGSAT 1 31 May 13:54:53 13:57:31 16° 260° (W) 13:59:58 437.445
ESTCUBE 1 31 May 14:02:14 14:04:28 13° 280° (W) 14:06:26 437.505/2401.250
Oscar 19 31 May 14:15:34 14:18:58 19° 79° (E) 14:22:37 437.125/150
GONETS M04 31 May 14:21:43 14:30:25 61° 274° (W) 14:39:03
Cosmos 2499 31 May 14:27:30 14:32:38 19° 98° (E) 14:38:12 435.465 / 435.565
SO-50 31 May 14:32:19 14:36:40 34° 248° (WSW) 14:40:51 436.795
SRMSAT 31 May 15:01:00 15:03:20 12° 9° (N) 15:05:44 437.500
O/OREOS (USA 219) 31 May 15:16:06 15:20:40 72° 285° (WNW) 15:25:10 437.305
ITUPSAT 1 31 May 15:18:29 15:23:16 73° 101° (ESE) 15:28:06 437.325
JUGNU 31 May 15:22:11 15:27:11 28° 18° (NNE) 15:32:13 437.505
BEESAT 31 May 15:23:05 15:27:52 86° 104° (ESE) 15:32:40 436.000
SWISSCUBE 31 May 15:32:24 15:37:08 64° 282° (WNW) 15:41:54 437.505
